Estación de San Julian
Ultimos registro cada 15 minutos 35
| N° | Estación | Fecha / Hora | Temperatura | Humedad | Lluvia | Velocidad | Dirección | Radiación | Presion |
| 35 | San Julian | 08-05-2026 08:30 | 11 | 66,6 | 0 | 0 | 41 | 108,1 | 985,4 |
| 34 | San Julian | 08-05-2026 08:15 | 11,3 | 68,4 | 0 | 0 | 41 | 119,4 | 985,4 |
| 33 | San Julian | 08-05-2026 08:00 | 8,6 | 78 | 0 | 0 | 41 | 73,1 | 985,2 |
| 32 | San Julian | 08-05-2026 07:45 | 5,7 | 85 | 0 | 0 | 41 | 18,1 | 985,1 |
| 31 | San Julian | 08-05-2026 07:30 | 5,4 | 84,2 | 0 | 0 | 41 | 5,6 | 984,9 |
| 30 | San Julian | 08-05-2026 07:15 | 6,5 | 85,8 | 0 | 0 | 41 | 0,6 | 984,9 |
| 29 | San Julian | 08-05-2026 07:00 | 5,3 | 83,4 | 0 | 0 | 41 | 0,6 | 984,9 |
| 28 | San Julian | 08-05-2026 06:45 | 5,6 | 83,8 | 0 | 0 | 41 | 0,6 | 984,7 |
| 27 | San Julian | 08-05-2026 06:30 | 5,8 | 81,7 | 0 | 0 | 41 | 0,6 | 984,6 |
| 26 | San Julian | 08-05-2026 06:15 | 7 | 81,4 | 0 | 0 | 41 | 0,6 | 984,2 |
| 25 | San Julian | 08-05-2026 06:00 | 6,9 | 79,2 | 0 | 0 | 41 | 0,6 | 984,4 |
| 24 | San Julian | 08-05-2026 05:45 | 6,4 | 81,8 | 0 | 0 | 41 | 0,6 | 984,5 |
| 23 | San Julian | 08-05-2026 05:30 | 6,5 | 82 | 0 | 0 | 41 | 0,6 | 984,5 |
| 22 | San Julian | 08-05-2026 05:15 | 6 | 83,8 | 0 | 0 | 41 | 0,6 | 984,5 |
| 21 | San Julian | 08-05-2026 05:00 | 6,1 | 83,5 | 0 | 0 | 41 | 0,6 | 984,6 |
| 20 | San Julian | 08-05-2026 04:45 | 6,4 | 84 | 0 | 0 | 41 | 0,6 | 984,5 |
| 19 | San Julian | 08-05-2026 04:30 | 6,4 | 84,1 | 0 | 0 | 41 | 0,6 | 984,4 |
| 18 | San Julian | 08-05-2026 04:15 | 6,5 | 84,9 | 0 | 0 | 39 | 0,6 | 984,4 |
| 17 | San Julian | 08-05-2026 04:00 | 6,5 | 84,2 | 0 | 0 | 39 | 0,6 | 984,6 |
| 16 | San Julian | 08-05-2026 03:45 | 5,9 | 84,5 | 0 | 0 | 39 | 0,6 | 984,8 |
| 15 | San Julian | 08-05-2026 03:30 | 6,1 | 82,3 | 0 | 0 | 39 | 0,6 | 984,8 |
| 14 | San Julian | 08-05-2026 03:15 | 7,5 | 80,7 | 0 | 0 | 39 | 0,6 | 984,9 |
| 13 | San Julian | 08-05-2026 03:00 | 7 | 80 | 0 | 0 | 39 | 0,6 | 985 |
| 12 | San Julian | 08-05-2026 02:45 | 8 | 80,8 | 0 | 0 | 39 | 0,6 | 985,4 |
| 11 | San Julian | 08-05-2026 02:30 | 7,9 | 80,3 | 0 | 0 | 39 | 0,6 | 985,7 |
| 10 | San Julian | 08-05-2026 02:15 | 8,9 | 77,2 | 0 | 0 | 39 | 0,6 | 985,6 |
| 9 | San Julian | 08-05-2026 02:00 | 10 | 77,3 | 0 | 0 | 38 | 0,6 | 985,4 |
| 8 | San Julian | 08-05-2026 01:45 | 10,3 | 75,9 | 0 | 0 | 29 | 0,6 | 985,6 |
| 7 | San Julian | 08-05-2026 01:30 | 10,1 | 76,6 | 0 | 0 | 38 | 0,6 | 985,7 |
| 6 | San Julian | 08-05-2026 01:15 | 10,1 | 76,5 | 0 | 0 | 35 | 0,6 | 985,9 |
| 5 | San Julian | 08-05-2026 01:00 | 10,3 | 76,5 | 0 | 0 | 34 | 0,6 | 986,1 |
| 4 | San Julian | 08-05-2026 00:45 | 10,5 | 76,8 | 0 | 0 | 45 | 0,6 | 986,2 |
| 3 | San Julian | 08-05-2026 00:30 | 10,6 | 77,4 | 0 | 0 | 3 | 0,6 | 986,3 |
| 2 | San Julian | 08-05-2026 00:15 | 10,4 | 77,3 | 0 | 0 | 295 | 0,6 | 986,3 |
| 1 | San Julian | 08-05-2026 00:00 | 10,3 | 77,8 | 0 | 0 | 293 | 0,6 | 986,3 |